Temperature
22 22 22 23 23 23 24 24 24 25 27 26 25 25 26 26 26 26 26 25 25 25 24 24 23 23 22 22 22 21 20 19 19 18 18 17 17 17 16 16 16 15 15 14
22 22 24 24 24 24 24 24 24 25 27 26 26 25 26 26 26 26 26 26 25 25 24 24 23 23 22 22 21 21 20 20 19 19 18 17 17 17 16 16 16 15 15 14
23 24 25 25 25 25 24 24 25 25 26 26 26 25 25 26 26 26 26 25 25 25 24 23 23 22 22 22 21 21 20 20 19 19 18 17 17 17 16 16 16 15 15 15
23 24 25 25 25 25 24 25 26 26 25 25 25 23 24 25 25 26 26 25 25 24 24 23 23 22 22 22 21 21 20 20 19 19 18 18 17 17 17 16 16 16 15 15
23 24 24 24 25 25 24 26 25 25 25 25 25 24 24 25 25 25 25 25 24 24 23 23 22 22 22 21 21 20 20 19 19 19 18 18 17 17 16 16 16 16 16 15
24 25 25 25 25 25 26 26 25 26 25 24 25 25 23 24 25 25 25 24 24 23 23 22 22 21 21 21 20 20 20 19 19 19 18 18 17 17 16 16 16 16 16 16
23 24 25 25 25 25 26 25 24 23 23 23 26 25 23 25 26 25 25 24 23 23 22 22 21 21 21 20 20 20 19 19 19 19 18 18 17 17 17 16 16 16 16 16
23 23 25 25 26 25 25 25 23 22 23 23 26 24 24 25 25 25 24 23 23 22 21 21 21 20 20 20 20 19 19 19 19 18 18 17 17 17 17 16 16 16 16 16
24 24 26 26 26 26 25 25 25 24 24 24 25 24 24 25 25 24 24 23 22 22 21 21 20 20 20 19 19 19 19 19 18 18 18 17 17 17 17 16 16 16 16 16
25 24 25 26 26 26 26 26 25 24 23 23 24 24 23 23 23 24 23 23 22 21 21 20 20 20 19 19 19 18 18 18 18 18 17 17 17 17 16 16 16 16 16 16
25 25 25 25 25 26 26 26 26 25 26 24 23 24 25 24 24 23 23 22 22 21 20 19 19 19 19 19 19 18 18 18 18 17 17 17 17 17 16 16 16 16 16 16
26 26 25 26 27 27 27 27 27 25 26 26 24 23 26 24 24 24 23 22 21 20 20 19 19 19 18 18 18 18 18 18 17 17 17 17 17 16 16 16 16 16 16 16
26 25 24 25 25 26 26 27 27 27 26 26 24 23 25 24 23 23 22 22 21 20 19 19 19 18 18 18 18 17 17 17 17 17 17 16 16 16 16 16 16 16 16 15
24 25 25 24 25 26 26 26 27 26 26 26 25 23 23 23 23 22 22 21 20 20 19 19 18 18 18 17 17 17 17 17 16 16 16 16 16 16 16 16 15 15 15 15
26 25 26 26 27 27 27 27 27 26 27 26 25 24 23 23 22 22 21 21 20 19 19 18 18 18 18 17 17 17 17 16 16 16 16 16 15 15 15 15 15 15 15 15
26 26 26 26 27 27 26 27 27 26 26 26 25 24 25 23 22 22 21 20 19 19 18 18 18 17 17 17 17 16 16 16 16 16 15 15 15 15 14 14 14 14 14 14
26 26 25 25 27 26 25 26 26 26 26 26 25 24 24 23 22 21 20 20 19 18 18 17 17 17 17 17 16 16 16 16 15 15 15 15 14 14 14 14 14 14 14 14
26 26 26 25 26 24 26 27 27 26 26 26 26 24 24 23 22 21 20 19 18 18 17 17 17 16 16 16 16 15 15 15 15 15 14 14 14 14 13 13 13 13 13 13
26 25 25 25 25 25 25 26 26 25 25 26 25 24 23 22 21 20 19 18 18 17 16 16 16 16 16 15 15 15 15 15 14 14 13 13 13 13 13 13 13 13 13 13
25 25 24 24 24 24 25 26 26 25 23 25 25 23 22 21 20 19 19 18 17 16 16 15 15 15 15 14 14 14 14 14 13 13 13 13 12 12 12 12 12 12 12 12
23 23 23 23 24 25 25 25 25 23 23 25 24 23 22 21 20 20 18 17 16 16 15 15 14 14 14 14 14 13 13 13 13 12 12 12 12 12 12 12 12 12 12 12
24 23 23 23 23 23 23 24 24 24 24 24 23 22 21 20 19 18 17 16 16 15 14 14 14 14 13 13 13 13 12 12 12 12 12 12 11 11 11 11 11 11 11 11
25 25 24 24 23 23 23 23 23 23 23 23 22 21 20 19 18 17 16 16 15 15 14 14 13 13 13 12 12 12 12 12 11 11 11 11 11 11 11 11 11 10 10 10
25 25 24 23 22 22 22 22 21 21 21 21 21 20 19 18 17 17 16 15 15 14 14 13 13 13 12 12 12 11 11 11 11 11 11 10 10 10 10 10 10 10 10 10
23 23 23 23 22 22 21 21 20 20 20 20 19 19 18 17 17 16 15 15 14 14 13 13 13 12 12 12 11 11 11 11 10 10 10 10 10 10 10 9 9 9 9 9
23 22 22 22 22 21 21 20 19 19 19 18 18 18 17 16 16 15 15 14 14 13 13 13 12 12 12 11 11 11 10 10 10 10 10 9 9 9 9 9 9 9 9 9
Wind_Speed
9 7 8 9 8 4 5 6 7 6 7 7 7 7 7 6 5 6 6 6 6 8 9 8 6 6 6 6 7 8 8 6 5 3 2 2 2 1 2 2 5 3 4 5
8 9 10 10 9 7 7 7 6 7 8 6 8 8 7 7 6 5 6 5 5 6 7 8 7 6 5 5 5 7 7 7 6 4 2 2 2 0 2 1 2 2 4 4
9 8 9 8 8 8 6 6 7 7 8 7 9 7 9 9 6 6 6 6 6 6 7 7 6 5 4 4 4 5 6 7 7 5 2 2 2 1 1 1 2 1 1 2
5 6 9 9 7 7 6 5 6 7 6 6 7 6 6 9 7 7 6 6 7 6 6 6 5 5 4 4 4 5 6 7 7 5 3 1 1 0 1 1 2 1 2 1
5 8 8 8 6 4 4 6 6 6 5 5 7 6 6 8 8 8 7 7 7 7 7 7 6 5 5 5 5 4 5 6 6 5 4 1 0 1 0 1 1 1 2 2
5 5 4 4 4 4 5 8 7 7 6 4 6 7 6 5 8 8 8 8 8 7 7 7 7 6 6 6 5 4 5 5 4 3 3 3 2 1 1 1 1 2 2 2
7 7 5 5 6 6 8 6 4 4 3 3 6 6 6 7 9 9 9 9 9 7 7 7 6 6 6 5 4 4 5 4 3 2 3 3 3 3 3 2 2 3 2 1
8 8 8 7 6 6 9 7 2 2 4 5 5 6 8 10 10 10 10 9 8 8 7 7 6 6 5 5 3 3 4 4 3 3 3 2 3 2 2 2 2 3 2 1
5 8 9 6 4 4 5 4 3 2 1 3 6 10 9 9 9 9 9 9 8 8 7 7 6 5 5 4 4 3 3 3 2 3 2 2 1 1 1 2 2 2 2 1
2 7 10 7 5 6 6 3 3 3 3 3 7 9 9 11 9 9 9 8 8 7 8 7 6 5 5 4 3 3 3 2 1 1 1 1 1 1 1 2 3 3 3 2
5 6 10 9 8 8 7 5 3 3 2 2 4 4 9 12 10 10 9 9 8 8 7 7 6 6 6 5 4 3 2 2 2 1 1 1 1 2 2 2 2 3 4 4
4 3 9 11 7 3 4 5 4 3 2 1 3 5 9 10 9 9 10 9 8 8 7 7 6 6 6 5 5 4 3 3 3 2 3 2 2 2 3 3 3 4 5 4
2 2 5 8 7 7 6 6 6 5 4 3 2 7 10 10 10 9 9 9 8 7 7 7 6 6 5 5 5 5 5 4 3 3 3 3 3 3 3 4 4 4 5 5
2 4 4 4 2 7 9 8 7 7 4 4 3 11 11 11 10 10 9 9 8 7 7 6 5 5 4 4 4 4 4 4 3 2 2 3 4 3 4 4 5 5 5 6
4 6 7 5 4 5 7 8 8 8 7 4 4 10 12 12 10 10 9 9 8 7 7 6 5 5 4 4 4 4 4 4 3 3 3 3 4 4 4 4 5 6 6 7
7 7 7 6 7 7 8 8 9 8 5 3 5 5 10 12 11 10 10 9 7 7 6 5 6 5 4 4 4 4 4 4 4 4 4 4 4 5 5 5 5 6 7 7
9 10 9 7 7 8 10 11 11 9 7 6 5 6 13 13 12 11 10 9 8 7 6 5 5 5 4 5 5 4 4 4 4 5 5 5 5 5 5 6 6 6 6 6
8 10 7 7 7 9 2 3 5 5 6 4 5 10 13 12 10 9 9 9 8 7 6 4 4 4 4 5 5 4 4 4 5 5 5 5 5 5 5 6 6 6 6 6
9 8 6 7 9 7 5 6 7 6 5 5 7 11 12 13 11 8 8 8 7 7 5 4 4 4 5 6 5 5 5 5 5 6 6 6 6 6 6 6 7 6 6 7
8 9 8 7 8 7 3 9 8 4 5 7 9 12 13 12 9 7 10 10 8 7 5 4 4 4 5 5 5 5 5 6 6 6 7 7 7 6 6 6 7 6 6 7
8 8 11 11 9 4 7 11 9 6 3 9 10 12 12 9 5 9 12 10 8 7 6 4 3 3 4 4 5 5 6 6 6 6 6 7 7 7 7 6 6 7 6 7
10 7 9 9 10 5 11 9 6 3 6 8 9 10 10 8 10 12 11 9 8 7 5 4 3 2 2 3 3 4 4 5 5 6 6 7 7 7 7 6 6 7 7 7
5 3 2 3 2 6 7 5 5 6 6 6 8 9 9 9 10 10 9 8 7 6 5 4 3 1 1 2 3 3 3 4 5 6 6 7 7 7 6 6 7 7 6 6
5 2 1 1 5 7 6 5 5 4 4 6 6 7 9 9 9 8 8 7 6 5 4 3 3 1 0 1 1 2 3 4 5 6 6 6 6 6 7 6 6 6 6 6
0 2 3 4 4 4 5 5 5 4 5 6 6 6 7 8 7 7 6 6 5 4 4 3 2 1 1 1 2 2 3 4 6 7 6 6 6 6 6 6 6 7 6 7
4 4 5 4 4 4 5 6 6 6 6 6 6 6 6 6 6 5 5 4 4 4 3 3 2 2 2 3 3 2 2 4 6 6 6 5 5 5 6 6 8 10 11 13
Wind_Direction
191 206 208 203 204 197 189 172 162 155 148 154 147 131 131 131 141 142 140 140 155 152 144 134 133 127 136 143 136 136 143 137 120 107 96 91 84 39 77 73 72 34 13 15
181 208 205 196 185 184 178 164 160 146 148 149 133 121 118 117 118 118 122 123 132 129 132 133 137 137 146 141 147 149 142 135 125 121 127 132 117 87 107 86 97 43 33 23
189 190 187 183 179 177 161 170 160 154 149 155 137 126 127 122 118 108 98 97 97 95 104 114 118 127 137 138 145 135 133 132 128 136 117 83 85 307 96 138 124 118 84 52
187 177 179 184 184 175 168 167 159 164 167 162 152 129 131 130 120 111 99 87 84 86 97 105 108 112 126 131 129 133 134 133 132 134 124 144 180 160 157 141 134 213 158 125
171 173 177 179 177 169 148 162 183 193 197 183 155 135 136 128 121 108 100 93 91 82 85 93 90 90 92 98 100 110 121 120 125 135 142 198 298 305 354 81 119 263 183 165
153 159 163 173 164 162 178 188 200 215 217 197 171 137 128 123 117 109 100 96 89 81 83 87 85 83 81 85 91 95 106 107 117 141 162 187 224 268 285 269 220 271 236 191
157 161 162 173 165 183 214 210 192 196 193 174 158 122 114 111 106 103 98 90 86 82 78 81 90 97 98 100 106 114 117 120 138 183 209 200 211 238 243 238 233 253 269 212
161 166 175 190 205 193 212 224 233 204 176 165 167 120 116 104 97 97 93 89 87 82 79 78 86 98 107 112 121 132 135 141 161 205 230 230 214 218 240 235 248 249 256 231
175 160 166 184 222 258 225 213 235 273 225 161 128 114 121 118 113 106 99 91 84 83 84 80 79 90 105 113 119 121 130 144 167 217 229 249 278 238 259 276 266 266 267 251
237 158 167 178 217 234 271 260 214 214 194 169 145 153 155 147 136 123 111 101 94 89 84 77 67 62 75 88 95 101 100 111 138 233 271 293 308 305 293 283 291 301 297 289
232 180 164 177 208 208 205 225 235 254 229 161 152 117 136 145 138 128 118 112 107 97 89 83 74 62 61 67 79 85 85 76 64 337 301 339 296 300 295 285 288 290 283 270
220 235 182 184 190 254 258 255 246 256 252 179 134 111 116 125 124 121 119 113 103 96 93 88 79 72 64 61 57 58 55 57 47 8 350 348 351 320 297 288 277 276 276 273
326 234 190 175 183 203 229 248 274 289 277 250 171 136 132 130 126 122 120 117 111 103 94 87 80 74 67 62 53 50 42 39 50 36 4 355 350 336 320 315 307 300 298 292
307 263 253 233 220 191 203 214 239 262 262 258 150 137 149 146 139 134 129 122 113 105 96 89 86 84 79 75 65 52 37 23 33 43 25 1 342 348 340 328 323 316 312 306
241 253 244 237 243 224 211 210 223 246 266 269 139 145 160 154 146 139 133 124 117 109 100 92 86 77 75 72 64 56 41 23 22 35 26 2 342 349 342 332 328 323 316 311
242 265 252 234 228 228 229 223 226 236 248 224 148 136 136 141 140 144 141 133 124 112 101 93 86 75 61 64 55 45 32 20 18 29 21 3 354 351 344 334 329 321 312 308
224 248 263 256 223 222 232 222 217 219 217 209 199 154 138 144 152 150 143 138 130 118 104 87 77 67 48 52 48 36 25 20 24 28 16 3 353 344 339 335 326 312 306 304
254 250 254 258 239 235 202 111 163 194 211 200 156 142 151 150 141 135 139 137 131 122 111 92 73 65 47 49 45 28 17 24 30 25 8 356 350 344 335 325 315 308 307 306
251 266 266 259 255 244 185 160 162 177 202 182 159 148 145 136 131 142 144 134 126 117 106 92 67 58 46 43 31 17 11 22 31 19 356 349 347 336 327 319 312 308 306 300
240 251 251 250 253 255 162 143 145 168 203 180 164 153 149 149 165 168 147 133 124 114 103 88 69 50 44 36 23 14 12 20 21 8 351 342 333 323 317 312 309 309 304 298
199 220 232 245 251 252 121 131 145 185 199 156 156 155 160 169 154 136 136 132 126 117 110 99 81 61 45 24 15 14 15 13 5 354 340 327 323 317 310 311 310 309 308 308
194 202 213 225 237 224 138 153 174 115 105 136 144 150 152 142 118 124 132 132 132 129 125 121 106 80 58 27 14 13 10 357 348 337 327 320 317 318 325 319 313 313 315 311
213 228 215 207 123 87 123 115 86 93 119 125 135 139 141 135 132 133 136 137 138 139 137 132 126 108 56 31 26 356 347 341 330 322 318 315 316 319 324 326 323 319 315 311
202 213 265 150 139 142 137 112 107 104 107 107 118 131 139 142 143 142 144 144 147 148 144 145 148 164 265 4 346 321 328 325 320 315 313 314 319 326 329 326 318 316 315 315
99 140 227 236 174 148 164 162 149 135 129 127 124 129 133 140 146 147 150 153 153 152 153 160 171 189 262 289 297 311 325 326 319 317 321 325 326 322 317 313 309 308 297 295
244 220 222 223 188 181 165 159 154 156 152 148 144 143 140 143 147 151 155 153 155 163 171 179 182 204 253 281 293 299 312 315 315 318 319 315 313 311 308 305 306 298 291 293
Height
1493 1495 1495 1492 1491 1492 1492 1495 1498 1495 1491 1495 1499 1500 1501 1501 1503 1505 1507 1509 1512 1514 1516 1518 1521 1523 1525 1527 1528 1529 1530 1531 1532 1532 1532 1532 1531 1531 1530 1530 1528 1527 1526 1525
1493 1493 1488 1486 1487 1490 1492 1497 1498 1494 1490 1494 1498 1502 1500 1502 1504 1505 1507 1509 1512 1514 1516 1518 1520 1522 1524 1526 1528 1528 1529 1530 1531 1531 1532 1531 1531 1531 1530 1529 1528 1527 1526 1525
1490 1487 1483 1485 1487 1490 1493 1495 1496 1496 1493 1493 1500 1508 1505 1504 1506 1507 1508 1510 1512 1515 1516 1518 1520 1521 1523 1525 1527 1528 1529 1530 1530 1531 1531 1531 1531 1531 1530 1530 1528 1527 1526 1525
1487 1484 1484 1486 1488 1489 1497 1490 1491 1493 1499 1504 1501 1523 1512 1506 1507 1508 1510 1512 1514 1516 1517 1519 1520 1521 1522 1524 1526 1527 1528 1529 1530 1530 1530 1530 1530 1530 1530 1529 1529 1527 1526 1525
1487 1484 1485 1488 1488 1488 1492 1489 1491 1494 1498 1504 1502 1515 1516 1507 1511 1510 1511 1513 1515 1517 1518 1519 1521 1522 1522 1524 1525 1526 1527 1528 1529 1529 1530 1530 1530 1530 1530 1529 1528 1528 1526 1525
1484 1484 1485 1487 1486 1487 1488 1490 1492 1493 1497 1515 1504 1512 1521 1511 1510 1511 1512 1515 1516 1518 1519 1520 1521 1522 1523 1523 1524 1526 1527 1528 1528 1529 1529 1529 1529 1529 1529 1528 1528 1527 1527 1525
1490 1486 1486 1486 1488 1489 1489 1496 1510 1516 1518 1517 1499 1508 1518 1508 1507 1510 1513 1516 1518 1519 1520 1521 1522 1522 1523 1524 1524 1525 1526 1527 1528 1528 1529 1529 1528 1528 1528 1528 1527 1527 1526 1526
1495 1497 1486 1485 1486 1489 1489 1494 1513 1525 1524 1516 1500 1511 1513 1506 1509 1512 1514 1517 1519 1520 1521 1522 1523 1523 1523 1524 1525 1525 1526 1527 1527 1527 1528 1528 1528 1528 1527 1527 1527 1526 1526 1525
1489 1492 1482 1482 1483 1485 1489 1492 1493 1504 1506 1513 1508 1511 1510 1508 1511 1513 1516 1518 1520 1522 1522 1523 1524 1524 1524 1524 1525 1525 1526 1526 1527 1527 1527 1527 1527 1527 1527 1526 1526 1526 1525 1524
1481 1489 1484 1483 1484 1485 1485 1486 1493 1504 1517 1521 1515 1514 1516 1513 1513 1513 1516 1519 1521 1523 1523 1524 1524 1525 1525 1525 1525 1526 1526 1526 1526 1526 1526 1526 1526 1526 1525 1525 1524 1524 1524 1523
1478 1484 1487 1485 1487 1485 1486 1487 1487 1492 1494 1511 1522 1518 1498 1505 1508 1512 1516 1519 1521 1523 1524 1525 1525 1525 1525 1525 1526 1526 1526 1526 1526 1526 1526 1525 1525 1524 1524 1523 1523 1522 1522 1521
1475 1479 1486 1483 1477 1476 1478 1479 1482 1496 1496 1494 1508 1519 1498 1503 1507 1511 1516 1519 1522 1523 1525 1525 1526 1526 1526 1526 1526 1526 1526 1525 1525 1525 1525 1524 1524 1523 1522 1522 1521 1521 1520 1519
1474 1481 1491 1492 1489 1482 1481 1479 1479 1482 1487 1493 1505 1516 1500 1504 1509 1512 1516 1519 1522 1524 1525 1526 1526 1526 1526 1526 1526 1526 1526 1525 1525 1524 1523 1523 1522 1521 1521 1520 1519 1518 1518 1517
1477 1480 1487 1495 1487 1480 1482 1481 1480 1483 1492 1493 1494 1505 1503 1505 1508 1512 1516 1519 1521 1523 1525 1526 1526 1527 1527 1527 1527 1526 1525 1525 1524 1524 1523 1522 1521 1520 1519 1518 1517 1516 1515 1515
1474 1480 1477 1476 1473 1474 1476 1479 1480 1483 1483 1489 1492 1497 1499 1502 1507 1511 1515 1518 1521 1523 1525 1526 1526 1527 1527 1527 1527 1526 1525 1525 1524 1523 1522 1521 1520 1519 1518 1516 1515 1514 1512 1512
1473 1476 1475 1477 1472 1473 1476 1476 1478 1480 1480 1484 1488 1494 1493 1500 1506 1511 1514 1518 1520 1523 1524 1526 1526 1526 1527 1527 1526 1525 1525 1524 1523 1522 1521 1520 1519 1517 1516 1514 1512 1511 1509 1508
1470 1474 1478 1479 1471 1474 1482 1473 1475 1477 1477 1481 1489 1491 1493 1500 1504 1508 1512 1516 1519 1522 1524 1525 1525 1526 1526 1526 1525 1525 1524 1523 1522 1521 1520 1519 1517 1515 1514 1512 1510 1508 1507 1505
1469 1471 1474 1477 1478 1492 1474 1464 1466 1472 1475 1476 1480 1485 1491 1497 1503 1508 1511 1515 1518 1520 1522 1523 1524 1525 1525 1525 1524 1524 1523 1522 1521 1520 1518 1517 1515 1514 1512 1509 1508 1506 1504 1502
1467 1471 1476 1478 1482 1477 1470 1466 1468 1474 1478 1476 1480 1485 1491 1497 1503 1508 1511 1513 1516 1519 1520 1522 1523 1523 1524 1523 1523 1522 1522 1521 1519 1518 1517 1515 1513 1511 1509 1507 1505 1503 1501 1499
1468 1469 1476 1477 1484 1484 1468 1462 1466 1473 1481 1475 1478 1484 1490 1496 1503 1506 1509 1512 1514 1517 1518 1520 1521 1521 1522 1522 1521 1521 1520 1519 1518 1516 1514 1513 1511 1509 1507 1505 1502 1500 1498 1496
1473 1474 1477 1478 1479 1470 1463 1464 1468 1483 1479 1472 1477 1483 1488 1493 1497 1501 1505 1509 1512 1515 1516 1518 1519 1519 1520 1519 1519 1519 1518 1517 1515 1514 1512 1510 1508 1506 1504 1502 1500 1497 1495 1492
1464 1469 1472 1473 1479 1475 1464 1466 1470 1472 1470 1472 1477 1482 1487 1492 1496 1499 1503 1507 1510 1512 1514 1516 1517 1517 1517 1517 1517 1516 1516 1514 1513 1511 1509 1507 1505 1504 1502 1499 1496 1494 1491 1488
1454 1456 1458 1462 1467 1463 1463 1466 1468 1470 1472 1475 1478 1483 1487 1492 1495 1499 1502 1505 1508 1510 1512 1513 1514 1515 1515 1515 1515 1514 1513 1511 1510 1508 1507 1505 1503 1501 1499 1496 1493 1491 1488 1485
1449 1452 1456 1460 1462 1464 1466 1468 1470 1472 1474 1476 1479 1483 1487 1490 1494 1498 1501 1504 1506 1508 1509 1511 1511 1512 1513 1512 1512 1511 1510 1509 1507 1505 1504 1502 1500 1497 1495 1493 1490 1487 1484 1481
1450 1454 1456 1459 1461 1464 1466 1468 1470 1472 1475 1477 1480 1483 1486 1489 1493 1496 1498 1501 1503 1505 1507 1508 1509 1509 1510 1510 1509 1508 1507 1505 1504 1502 1500 1498 1496 1493 1491 1488 1486 1483 1481 1479
1452 1454 1458 1459 1459 1460 1464 1466 1469 1472 1474 1477 1479 1482 1485 1488 1491 1494 1496 1498 1500 1502 1504 1505 1505 1506 1506 1506 1506 1505 1504 1502 1500 1498 1497 1494 1492 1489 1487 1484 1481 1478 1477 1473